Time,TemperatureF,DewpointF,PressureIn,WindDirection,WindDirectionDegrees,WindSpeedMPH,WindSpeedGustMPH,Humidity,HourlyPrecipIn,Conditions,Clouds,dailyrainin,SoftwareType,DateUTC
2013-04-13 00:01:00,28.6,26.3,29.90,NW,309,3.5,3.5,91,0.00,RA,,0.00,WeatherDisplay:10.37,2013-04-13 05:01:00,
2013-04-13 00:06:00,28.5,26.2,29.90,NW,309,0.0,0.0,91,0.00,RA,,0.00,WeatherDisplay:10.37,2013-04-13 05:06:00,
2013-04-13 00:11:00,28.5,26.2,29.90,NW,310,3.5,3.5,91,0.00,CLR,,0.00,WeatherDisplay:10.37,2013-04-13 05:11:00,
2013-04-13 00:16:00,28.5,26.2,29.90,NW,310,0.0,0.0,91,0.00,CLR,,0.00,WeatherDisplay:10.37,2013-04-13 05:16:00,
2013-04-13 00:21:00,28.6,26.3,29.90,NW,310,3.5,3.5,91,0.00,CLR,,0.00,WeatherDisplay:10.37,2013-04-13 05:21:00,
2013-04-13 00:26:00,28.6,26.3,29.90,NW,311,0.0,0.0,91,0.00,CLR,,0.00,WeatherDisplay:10.37,2013-04-13 05:26:00,
2013-04-13 00:31:00,28.5,25.9,29.90,NW,310,0.0,0.0,90,0.00,CLR,,0.00,WeatherDisplay:10.37,2013-04-13 05:31:00,
2013-04-13 00:36:00,28.5,25.9,29.90,NW,311,0.0,0.0,90,0.00,CLR,,0.00,WeatherDisplay:10.37,2013-04-13 05:36:00,
2013-04-13 00:41:00,28.6,26.0,29.91,NW,311,0.0,0.0,90,0.00,CLR,,0.00,WeatherDisplay:10.37,2013-04-13 05:41:00,
2013-04-13 00:47:00,28.7,26.1,29.90,NW,311,0.0,0.0,90,0.00,CLR,,0.00,WeatherDisplay:10.37,2013-04-13 05:47:00,
2013-04-13 00:52:00,28.7,26.1,29.91,NW,311,0.0,0.0,90,0.00,CLR,,0.00,WeatherDisplay:10.37,2013-04-13 05:52:00,
2013-04-13 00:57:00,28.7,26.1,29.91,NW,310,0.0,0.2,90,0.00,CLR,,0.00,WeatherDisplay:10.37,2013-04-13 05:57:00,
2013-04-13 01:02:00,28.7,26.1,29.91,NW,311,0.0,0.0,90,0.00,CLR,,0.00,WeatherDisplay:10.37,2013-04-13 06:02:00,
2013-04-13 01:07:00,28.7,26.1,29.91,NW,311,0.0,0.0,90,0.00,CLR,,0.00,WeatherDisplay:10.37,2013-04-13 06:07:00,
2013-04-13 01:12:00,28.8,26.5,29.91,NW,310,0.0,0.0,91,0.00,CLR,,0.00,WeatherDisplay:10.37,2013-04-13 06:12:00,
2013-04-13 01:18:00,28.8,26.5,29.91,NW,310,0.0,0.0,91,0.00,CLR,,0.00,WeatherDisplay:10.37,2013-04-13 06:18:00,
2013-04-13 01:23:00,28.8,26.5,29.91,NW,311,0.0,0.0,91,0.00,CLR,,0.00,WeatherDisplay:10.37,2013-04-13 06:23:00,
2013-04-13 01:28:00,28.8,26.5,29.91,NW,310,0.0,0.0,91,0.00,CLR,,0.00,WeatherDisplay:10.37,2013-04-13 06:28:00,
2013-04-13 01:33:00,28.8,26.5,29.91,NW,310,0.0,0.0,91,0.00,CLR,,0.00,WeatherDisplay:10.37,2013-04-13 06:33:00,
2013-04-13 01:38:00,28.7,26.4,29.91,NW,311,0.0,0.0,91,0.00,CLR,,0.00,WeatherDisplay:10.37,2013-04-13 06:38:00,
2013-04-13 01:43:00,28.7,26.4,29.91,NW,311,0.0,0.0,91,0.00,CLR,,0.00,WeatherDisplay:10.37,2013-04-13 06:43:00,
2013-04-13 01:49:00,28.7,26.4,29.91,NW,310,3.5,3.5,91,0.00,CLR,,0.00,WeatherDisplay:10.37,2013-04-13 06:49:00,
2013-04-13 01:54:00,28.7,26.4,29.91,NW,311,2.3,0.0,91,0.00,CLR,,0.00,WeatherDisplay:10.37,2013-04-13 06:54:00,
2013-04-13 01:59:00,28.7,26.4,29.91,NW,310,0.0,0.0,91,0.00,CLR,,0.00,WeatherDisplay:10.37,2013-04-13 06:59:00,
2013-04-13 02:04:00,28.7,26.4,29.91,NW,310,0.0,0.0,91,0.00,CLR,,0.00,WeatherDisplay:10.37,2013-04-13 07:04:00,
2013-04-13 02:09:00,28.7,26.4,29.91,NW,304,3.5,3.5,91,0.00,CLR,,0.00,WeatherDisplay:10.37,2013-04-13 07:09:00,
2013-04-13 02:14:00,28.6,26.3,29.91,NW,304,0.0,0.0,91,0.00,CLR,,0.00,WeatherDisplay:10.37,2013-04-13 07:14:00,
2013-04-13 02:19:00,28.6,26.3,29.91,West,277,3.5,3.5,91,0.00,CLR,,0.00,WeatherDisplay:10.37,2013-04-13 07:19:00,
2013-04-13 02:24:00,28.5,26.2,29.91,West,277,3.5,3.5,91,0.00,CLR,,0.00,WeatherDisplay:10.37,2013-04-13 07:24:00,
2013-04-13 02:29:00,28.4,26.1,29.91,WNW,290,4.0,4.0,91,0.00,CLR,,0.00,WeatherDisplay:10.37,2013-04-13 07:29:00,
2013-04-13 02:34:00,28.4,26.1,29.91,West,281,0.0,0.0,91,0.00,CLR,,0.00,WeatherDisplay:10.37,2013-04-13 07:34:00,
2013-04-13 02:39:00,28.3,26.0,29.90,WNW,294,3.5,3.5,91,0.00,CLR,,0.00,WeatherDisplay:10.37,2013-04-13 07:39:00,
2013-04-13 02:44:00,28.3,26.0,29.90,WNW,292,3.5,3.5,91,0.00,CLR,,0.00,WeatherDisplay:10.37,2013-04-13 07:44:00,
2013-04-13 02:50:00,28.3,26.0,29.90,WNW,291,3.0,3.0,91,0.00,CLR,,0.00,WeatherDisplay:10.37,2013-04-13 07:50:00,
2013-04-13 02:55:00,28.2,25.9,29.90,WNW,290,3.5,3.5,91,0.00,CLR,,0.00,WeatherDisplay:10.37,2013-04-13 07:55:00,
2013-04-13 03:00:00,28.1,25.8,29.90,WNW,290,3.5,3.5,91,0.00,CLR,,0.00,WeatherDisplay:10.37,2013-04-13 08:00:00,
2013-04-13 03:05:00,28.0,25.7,29.90,WNW,290,0.0,0.0,91,0.00,CLR,,0.00,WeatherDisplay:10.37,2013-04-13 08:05:00,
2013-04-13 03:11:00,27.9,25.6,29.90,WNW,290,0.0,0.0,91,0.00,CLR,,0.00,WeatherDisplay:10.37,2013-04-13 08:11:00,
2013-04-13 03:16:00,27.9,25.6,29.90,WNW,290,1.2,0.0,91,0.00,CLR,,0.00,WeatherDisplay:10.37,2013-04-13 08:16:00,
2013-04-13 03:22:00,27.9,25.6,29.89,WNW,290,0.0,0.0,91,0.00,CLR,,0.00,WeatherDisplay:10.37,2013-04-13 08:22:00,
2013-04-13 03:28:00,27.9,25.6,29.89,WNW,290,0.0,0.0,91,0.00,CLR,,0.00,WeatherDisplay:10.37,2013-04-13 08:28:00,
2013-04-13 03:33:00,27.9,25.6,29.90,WNW,290,3.5,3.5,91,0.00,CLR,,0.00,WeatherDisplay:10.37,2013-04-13 08:33:00,
2013-04-13 03:38:00,27.8,25.5,29.90,WSW,240,3.5,3.5,91,0.00,CLR,,0.00,WeatherDisplay:10.37,2013-04-13 08:38:00,
2013-04-13 03:43:00,27.8,25.5,29.90,WSW,247,3.5,3.5,91,0.00,CLR,,0.00,WeatherDisplay:10.37,2013-04-13 08:43:00,
2013-04-13 03:48:00,27.7,25.4,29.90,WSW,252,3.5,3.5,91,0.00,CLR,,0.00,WeatherDisplay:10.37,2013-04-13 08:48:00,
2013-04-13 03:53:00,27.7,25.4,29.90,West,269,4.6,4.6,91,0.00,CLR,,0.00,WeatherDisplay:10.37,2013-04-13 08:53:00,
2013-04-13 03:58:00,27.8,25.5,29.90,WSW,244,4.6,4.6,91,0.00,CLR,,0.00,WeatherDisplay:10.37,2013-04-13 08:58:00,
2013-04-13 04:03:00,27.8,25.5,29.89,WSW,244,2.3,2.3,91,0.00,CLR,,0.00,WeatherDisplay:10.37,2013-04-13 09:03:00,
2013-04-13 04:08:00,27.9,25.6,29.89,WSW,244,1.0,0.0,91,0.00,CLR,,0.00,WeatherDisplay:10.37,2013-04-13 09:08:00,
2013-04-13 04:14:00,28.0,25.7,29.89,WSW,244,3.5,3.5,91,0.00,CLR,,0.00,WeatherDisplay:10.37,2013-04-13 09:14:00,
2013-04-13 04:19:00,28.1,25.8,29.89,WSW,244,3.5,3.5,91,0.00,CLR,,0.00,WeatherDisplay:10.37,2013-04-13 09:19:00,
2013-04-13 04:24:00,28.2,25.9,29.89,WSW,244,4.6,4.6,91,0.00,CLR,,0.00,WeatherDisplay:10.37,2013-04-13 09:24:00,
2013-04-13 04:29:00,28.3,26.0,29.89,SW,232,3.5,3.6,91,0.00,CLR,,0.00,WeatherDisplay:10.37,2013-04-13 09:29:00,
2013-04-13 04:34:00,28.4,26.1,29.89,WSW,244,4.0,4.0,91,0.00,CLR,,0.00,WeatherDisplay:10.37,2013-04-13 09:34:00,
2013-04-13 04:39:00,28.5,26.2,29.90,West,265,4.6,4.6,91,0.00,CLR,,0.00,WeatherDisplay:10.37,2013-04-13 09:39:00,
2013-04-13 04:44:00,28.5,26.2,29.90,West,280,3.5,3.5,91,0.00,CLR,,0.00,WeatherDisplay:10.37,2013-04-13 09:44:00,
2013-04-13 04:49:00,28.5,26.2,29.90,West,273,9.2,9.2,91,0.00,CLR,,0.00,WeatherDisplay:10.37,2013-04-13 09:49:00,
2013-04-13 04:54:00,28.5,26.2,29.90,NW,306,5.8,5.8,91,0.00,CLR,,0.00,WeatherDisplay:10.37,2013-04-13 09:54:00,
2013-04-13 04:59:00,28.4,26.1,29.90,WNW,299,4.0,4.0,91,0.00,CLR,,0.00,WeatherDisplay:10.37,2013-04-13 09:59:00,
2013-04-13 05:05:00,28.3,26.0,29.90,NW,310,10.4,10.4,91,0.00,CLR,,0.00,WeatherDisplay:10.37,2013-04-13 10:05:00,
2013-04-13 05:10:00,28.3,26.0,29.90,WNW,298,12.7,12.7,91,0.00,CLR,,0.00,WeatherDisplay:10.37,2013-04-13 10:10:00,
2013-04-13 05:15:00,28.2,25.9,29.90,West,267,6.9,6.9,91,0.00,CLR,,0.00,WeatherDisplay:10.37,2013-04-13 10:15:00,
2013-04-13 05:20:00,28.2,25.9,29.90,West,271,11.5,11.5,91,0.00,CLR,,0.00,WeatherDisplay:10.37,2013-04-13 10:20:00,
2013-04-13 05:26:00,28.1,25.5,29.90,West,261,3.5,3.5,90,0.00,CLR,,0.00,WeatherDisplay:10.37,2013-04-13 10:26:00,
2013-04-13 05:31:00,28.0,25.4,29.90,WNW,288,4.6,4.6,90,0.00,CLR,,0.00,WeatherDisplay:10.37,2013-04-13 10:31:00,
2013-04-13 05:36:00,27.9,25.3,29.90,West,277,9.2,9.2,90,0.00,CLR,,0.00,WeatherDisplay:10.37,2013-04-13 10:36:00,
2013-04-13 05:41:00,27.8,25.2,29.90,WSW,254,5.8,5.8,90,0.00,CLR,,0.00,WeatherDisplay:10.37,2013-04-13 10:41:00,
2013-04-13 05:46:00,27.7,25.2,29.90,WNW,282,5.8,5.8,90,0.00,CLR,,0.00,WeatherDisplay:10.37,2013-04-13 10:46:00,
2013-04-13 05:51:00,27.6,25.1,29.90,West,270,4.6,4.6,90,0.00,CLR,,0.00,WeatherDisplay:10.37,2013-04-13 10:51:00,
2013-04-13 05:57:00,27.5,25.0,29.90,SW,230,4.6,4.6,90,0.00,CLR,,0.00,WeatherDisplay:10.37,2013-04-13 10:57:00,
2013-04-13 06:02:00,27.5,25.0,29.90,WSW,249,4.6,4.6,90,0.00,CLR,,0.00,WeatherDisplay:10.37,2013-04-13 11:02:00,
2013-04-13 06:07:00,27.4,24.9,29.90,West,267,11.5,11.5,90,0.00,CLR,,0.00,WeatherDisplay:10.37,2013-04-13 11:07:00,
2013-04-13 06:12:00,27.3,24.8,29.90,WSW,254,5.8,5.8,90,0.00,CLR,,0.00,WeatherDisplay:10.37,2013-04-13 11:12:00,
2013-04-13 06:18:00,27.2,24.7,29.90,WSW,253,6.9,6.9,90,0.00,CLR,,0.00,WeatherDisplay:10.37,2013-04-13 11:18:00,
2013-04-13 06:23:00,27.1,24.6,29.91,West,261,6.0,6.3,90,0.00,CLR,,0.00,WeatherDisplay:10.37,2013-04-13 11:23:00,
2013-04-13 06:28:00,27.0,24.5,29.91,West,259,5.8,5.8,90,0.00,CLR,,0.00,WeatherDisplay:10.37,2013-04-13 11:28:00,
2013-04-13 06:33:00,26.9,24.4,29.91,WSW,244,6.9,6.9,90,0.00,CLR,,0.00,WeatherDisplay:10.37,2013-04-13 11:33:00,
2013-04-13 06:38:00,26.9,24.4,29.91,West,280,3.5,3.5,90,0.00,CLR,,0.00,WeatherDisplay:10.37,2013-04-13 11:38:00,
2013-04-13 06:44:00,26.8,24.3,29.91,WSW,247,6.9,6.9,90,0.00,CLR,,0.00,WeatherDisplay:10.37,2013-04-13 11:44:00,
2013-04-13 06:49:00,26.8,24.3,29.91,WSW,257,9.2,9.2,90,0.00,CLR,,0.00,WeatherDisplay:10.37,2013-04-13 11:49:00,
2013-04-13 06:54:00,26.8,24.3,29.91,West,278,4.6,4.6,90,0.00,CLR,,0.00,WeatherDisplay:10.37,2013-04-13 11:54:00,
2013-04-13 06:59:00,26.9,24.4,29.91,WNW,292,4.6,4.6,90,0.00,CLR,,0.00,WeatherDisplay:10.37,2013-04-13 11:59:00,
2013-04-13 07:05:00,27.0,24.5,29.91,West,269,8.1,8.1,90,0.00,CLR,,0.00,WeatherDisplay:10.37,2013-04-13 12:05:00,
2013-04-13 07:10:00,27.1,24.6,29.91,WNW,300,5.8,5.8,90,0.00,CLR,,0.00,WeatherDisplay:10.37,2013-04-13 12:10:00,
2013-04-13 07:15:00,27.3,24.8,29.91,WNW,292,5.8,5.8,90,0.00,CLR,,0.00,WeatherDisplay:10.37,2013-04-13 12:15:00,
2013-04-13 07:20:00,27.5,25.0,29.91,WNW,300,10.4,10.4,90,0.00,CLR,,0.00,WeatherDisplay:10.37,2013-04-13 12:20:00,
2013-04-13 07:25:00,27.7,24.9,29.92,WNW,284,8.0,8.0,89,0.00,CLR,,0.00,WeatherDisplay:10.37,2013-04-13 12:25:00,
2013-04-13 07:31:00,27.9,25.1,29.92,West,279,6.9,6.9,89,0.00,CLR,,0.00,WeatherDisplay:10.37,2013-04-13 12:31:00,
2013-04-13 07:37:00,28.1,25.3,29.92,WNW,286,3.5,3.5,89,0.00,CLR,,0.00,WeatherDisplay:10.37,2013-04-13 12:37:00,
2013-04-13 07:42:00,28.3,25.2,29.92,WSW,243,3.5,3.5,88,0.00,CLR,,0.00,WeatherDisplay:10.37,2013-04-13 12:42:00,
2013-04-13 07:48:00,28.5,25.4,29.92,West,274,6.9,6.9,88,0.00,CLR,,0.00,WeatherDisplay:10.37,2013-04-13 12:48:00,
2013-04-13 07:53:00,28.6,25.5,29.92,West,269,6.9,6.9,88,0.00,CLR,,0.00,WeatherDisplay:10.37,2013-04-13 12:53:00,
2013-04-13 07:58:00,28.7,25.3,29.92,WNW,299,10.4,10.4,87,0.00,CLR,,0.00,WeatherDisplay:10.37,2013-04-13 12:58:00,
2013-04-13 08:03:00,28.8,25.4,29.93,West,280,5.8,5.8,87,0.00,CLR,,0.00,WeatherDisplay:10.37,2013-04-13 13:03:00,
2013-04-13 08:08:00,29.0,25.3,29.93,West,267,6.9,6.9,86,0.00,CLR,,0.00,WeatherDisplay:10.37,2013-04-13 13:08:00,
2013-04-13 08:13:00,29.0,25.3,29.93,WNW,288,9.2,9.2,86,0.00,CLR,,0.00,WeatherDisplay:10.37,2013-04-13 13:13:00,
2013-04-13 08:19:00,29.1,25.2,29.93,West,279,8.1,8.1,85,0.00,CLR,,0.00,WeatherDisplay:10.37,2013-04-13 13:19:00,
2013-04-13 08:24:00,29.2,25.3,29.93,WNW,291,9.2,9.2,85,0.00,CLR,,0.00,WeatherDisplay:10.37,2013-04-13 13:24:00,
2013-04-13 08:30:00,29.2,25.3,29.93,West,261,6.9,6.9,85,0.00,CLR,,0.00,WeatherDisplay:10.37,2013-04-13 13:30:00,
2013-04-13 08:35:00,29.4,25.4,29.93,WNW,294,6.9,6.9,85,0.00,CLR,,0.00,WeatherDisplay:10.37,2013-04-13 13:35:00,
2013-04-13 08:40:00,29.4,25.2,29.93,West,260,11.5,11.5,84,0.00,CLR,,0.00,WeatherDisplay:10.37,2013-04-13 13:40:00,
2013-04-13 08:45:00,29.4,25.2,29.93,NW,307,10.4,10.4,84,0.00,CLR,,0.00,WeatherDisplay:10.37,2013-04-13 13:45:00,
2013-04-13 08:50:00,29.4,25.4,29.94,WNW,288,10.4,10.4,85,0.00,CLR,,0.00,WeatherDisplay:10.37,2013-04-13 13:50:00,
2013-04-13 08:55:00,29.4,25.4,29.94,WSW,244,6.9,6.9,85,0.00,CLR,,0.00,WeatherDisplay:10.37,2013-04-13 13:55:00,
2013-04-13 09:00:00,29.4,25.4,29.94,West,265,10.4,10.4,85,0.00,CLR,,0.00,WeatherDisplay:10.37,2013-04-13 14:00:00,
2013-04-13 09:05:00,29.4,25.2,29.94,WNW,283,11.5,11.5,84,0.00,CLR,,0.00,WeatherDisplay:10.37,2013-04-13 14:05:00,
2013-04-13 09:10:00,29.5,25.5,29.94,WNW,286,8.1,8.1,85,0.00,CLR,,0.00,WeatherDisplay:10.37,2013-04-13 14:10:00,
2013-04-13 09:15:00,29.4,25.2,29.94,West,281,6.9,7.5,84,0.00,CLR,,0.00,WeatherDisplay:10.37,2013-04-13 14:15:00,
2013-04-13 09:20:00,29.4,25.2,29.94,WNW,290,11.5,11.5,84,0.00,CLR,,0.00,WeatherDisplay:10.37,2013-04-13 14:20:00,
2013-04-13 09:25:00,29.4,25.2,29.94,WSW,254,11.5,11.5,84,0.00,CLR,,0.00,WeatherDisplay:10.37,2013-04-13 14:25:00,
2013-04-13 09:30:00,29.4,25.2,29.94,WSW,255,11.5,11.5,84,0.00,CLR,,0.00,WeatherDisplay:10.37,2013-04-13 14:30:00,
2013-04-13 09:35:00,29.4,25.2,29.94,WNW,294,11.5,11.5,84,0.00,CLR,,0.00,WeatherDisplay:10.37,2013-04-13 14:35:00,
2013-04-13 09:40:00,29.5,25.3,29.94,WNW,296,12.7,12.7,84,0.00,CLR,,0.00,WeatherDisplay:10.37,2013-04-13 14:40:00,
2013-04-13 09:45:00,29.5,25.3,29.94,WNW,286,5.8,5.8,84,0.00,CLR,,0.00,WeatherDisplay:10.37,2013-04-13 14:45:00,
2013-04-13 09:51:00,29.7,25.2,29.94,West,267,10.4,10.4,83,0.00,CLR,,0.00,WeatherDisplay:10.37,2013-04-13 14:51:00,
2013-04-13 09:57:00,29.8,25.3,29.94,WSW,250,6.9,6.9,83,0.00,CLR,,0.00,WeatherDisplay:10.37,2013-04-13 14:57:00,
2013-04-13 10:02:00,29.9,25.4,29.94,West,263,10.4,10.4,83,0.00,CLR,,0.00,WeatherDisplay:10.37,2013-04-13 15:02:00,
2013-04-13 10:07:00,29.9,25.4,29.94,West,273,11.5,11.5,83,0.00,CLR,,0.00,WeatherDisplay:10.37,2013-04-13 15:07:00,
2013-04-13 10:12:00,30.0,25.5,29.94,WNW,292,10.4,10.4,83,0.00,CLR,,0.00,WeatherDisplay:10.37,2013-04-13 15:12:00,
2013-04-13 10:18:00,30.1,25.6,29.94,West,275,6.9,6.9,83,0.00,CLR,,0.00,WeatherDisplay:10.37,2013-04-13 15:18:00,
2013-04-13 10:23:00,30.2,25.4,29.94,WNW,295,10.4,10.4,82,0.00,CLR,,0.00,WeatherDisplay:10.37,2013-04-13 15:23:00,
2013-04-13 10:28:00,30.2,25.4,29.94,West,279,8.1,8.1,82,0.01,RA,,0.01,WeatherDisplay:10.37,2013-04-13 15:28:00,
2013-04-13 10:33:00,30.3,25.2,29.94,WNW,293,12.7,12.7,81,0.01,RA,,0.01,WeatherDisplay:10.37,2013-04-13 15:33:00,
2013-04-13 10:38:00,30.3,25.2,29.94,West,279,11.5,11.5,81,0.01,,,0.01,WeatherDisplay:10.37,2013-04-13 15:38:00,
2013-04-13 10:44:00,30.7,25.6,29.94,West,263,9.2,9.2,81,0.01,CLR,,0.01,WeatherDisplay:10.37,2013-04-13 15:44:00,
2013-04-13 10:49:00,31.0,25.9,29.94,SSW,213,11.5,11.5,81,0.01,CLR,,0.01,WeatherDisplay:10.37,2013-04-13 15:49:00,
2013-04-13 10:55:00,31.0,25.2,29.94,West,265,11.5,11.5,79,0.01,CLR,,0.01,WeatherDisplay:10.37,2013-04-13 15:55:00,
2013-04-13 11:00:00,31.2,25.4,29.95,WNW,291,9.2,9.2,79,0.01,CLR,,0.01,WeatherDisplay:10.37,2013-04-13 16:00:00,
2013-04-13 11:05:00,31.6,25.5,29.95,WSW,252,9.0,9.0,78,0.01,CLR,,0.01,WeatherDisplay:10.37,2013-04-13 16:05:00,
2013-04-13 11:10:00,31.5,25.1,29.95,WNW,283,15.0,15.0,77,0.01,CLR,,0.01,WeatherDisplay:10.37,2013-04-13 16:10:00,
2013-04-13 11:15:00,31.6,25.5,29.95,WNW,286,12.7,12.7,78,0.01,CLR,,0.01,WeatherDisplay:10.37,2013-04-13 16:15:00,
2013-04-13 11:20:00,31.7,25.3,29.95,WSW,257,13.8,13.8,77,0.01,CLR,,0.01,WeatherDisplay:10.37,2013-04-13 16:20:00,
2013-04-13 11:25:00,31.9,25.5,29.95,West,260,11.5,11.5,77,0.01,CLR,,0.01,WeatherDisplay:10.37,2013-04-13 16:25:00,
2013-04-13 11:30:00,32.1,25.7,29.95,WNW,287,12.7,12.7,77,0.00,CLR,,0.01,WeatherDisplay:10.37,2013-04-13 16:30:00,
2013-04-13 11:35:00,31.9,24.9,29.95,WSW,240,11.5,11.5,75,0.01,RA,,0.02,WeatherDisplay:10.37,2013-04-13 16:35:00,
2013-04-13 11:40:00,32.2,25.5,29.96,NW,310,6.9,6.9,76,0.01,RA,,0.02,WeatherDisplay:10.37,2013-04-13 16:40:00,
2013-04-13 11:45:00,32.6,25.2,29.96,NW,304,10.4,10.4,74,0.01,CLR,,0.02,WeatherDisplay:10.37,2013-04-13 16:45:00,
2013-04-13 11:50:00,32.7,25.3,29.95,WNW,287,12.7,12.7,74,0.01,CLR,,0.02,WeatherDisplay:10.37,2013-04-13 16:50:00,
2013-04-13 11:55:00,32.5,24.5,29.96,WNW,286,11.5,11.5,72,0.01,CLR,,0.02,WeatherDisplay:10.37,2013-04-13 16:55:00,
2013-04-13 12:01:00,32.5,24.5,29.96,West,264,11.5,11.5,72,0.01,CLR,,0.02,WeatherDisplay:10.37,2013-04-13 17:01:00,
2013-04-13 12:06:00,32.6,24.6,29.96,WSW,245,11.5,11.5,72,0.01,CLR,,0.02,WeatherDisplay:10.37,2013-04-13 17:06:00,
2013-04-13 12:11:00,33.1,25.1,29.96,West,265,11.5,11.5,72,0.02,RA,,0.03,WeatherDisplay:10.37,2013-04-13 17:11:00,
2013-04-13 12:17:00,33.0,24.6,29.96,WSW,253,7.0,7.0,71,0.02,RA,,0.03,WeatherDisplay:10.37,2013-04-13 17:17:00,
2013-04-13 12:22:00,33.1,24.7,29.96,WNW,291,11.5,11.5,71,0.02,,,0.03,WeatherDisplay:10.37,2013-04-13 17:22:00,
2013-04-13 12:28:00,33.1,25.1,29.96,West,261,11.5,11.5,72,0.02,CLR,,0.03,WeatherDisplay:10.37,2013-04-13 17:28:00,
2013-04-13 12:33:00,33.1,24.7,29.96,West,279,13.8,13.8,71,0.01,CLR,,0.03,WeatherDisplay:10.37,2013-04-13 17:33:00,
2013-04-13 12:38:00,33.6,25.2,29.96,WSW,249,5.0,5.0,71,0.01,CLR,,0.03,WeatherDisplay:10.37,2013-04-13 17:38:00,
2013-04-13 12:43:00,33.6,24.9,29.96,West,276,10.4,10.4,70,0.01,CLR,,0.03,WeatherDisplay:10.37,2013-04-13 17:43:00,
2013-04-13 12:48:00,33.4,24.7,29.96,SW,215,10.4,10.4,70,0.01,CLR,,0.03,WeatherDisplay:10.37,2013-04-13 17:48:00,
2013-04-13 12:54:00,33.4,24.3,29.96,WNW,296,13.8,13.8,69,0.01,CLR,,0.03,WeatherDisplay:10.37,2013-04-13 17:54:00,
2013-04-13 12:59:00,33.6,24.5,29.96,SW,234,11.5,11.5,69,0.01,CLR,,0.03,WeatherDisplay:10.37,2013-04-13 17:59:00,
2013-04-13 13:04:00,33.7,24.6,29.96,West,277,11.5,11.5,69,0.02,RA,,0.04,WeatherDisplay:10.37,2013-04-13 18:04:00,
2013-04-13 13:10:00,33.5,24.4,29.96,WNW,282,6.9,6.9,69,0.01,RA,,0.04,WeatherDisplay:10.37,2013-04-13 18:10:00,
2013-04-13 13:15:00,33.4,24.7,29.96,West,260,6.9,6.9,70,0.01,,,0.04,WeatherDisplay:10.37,2013-04-13 18:15:00,
2013-04-13 13:20:00,33.5,24.4,29.96,WNW,287,11.5,11.5,69,0.01,CLR,,0.04,WeatherDisplay:10.37,2013-04-13 18:20:00,
2013-04-13 13:25:00,33.4,24.0,29.96,West,267,15.0,15.0,68,0.01,CLR,,0.04,WeatherDisplay:10.37,2013-04-13 18:25:00,
2013-04-13 13:27:00,33.3,23.9,29.96,West,274,10.4,10.4,68,0.01,CLR,,0.04,WeatherDisplay:10.37,2013-04-13 18:27:00,
2013-04-13 13:33:00,33.4,24.0,29.96,WNW,298,11.5,11.5,68,0.01,CLR,,0.04,WeatherDisplay:10.37,2013-04-13 18:33:00,
2013-04-13 13:38:00,33.3,23.5,29.96,WNW,295,6.9,6.9,67,0.01,CLR,,0.04,WeatherDisplay:10.37,2013-04-13 18:38:00,
2013-04-13 13:43:00,33.5,24.4,29.96,WSW,242,6.9,6.9,69,0.01,CLR,,0.04,WeatherDisplay:10.37,2013-04-13 18:43:00,
2013-04-13 13:48:00,33.3,23.9,29.97,WSW,238,17.3,17.3,68,0.01,CLR,,0.04,WeatherDisplay:10.37,2013-04-13 18:48:00,
2013-04-13 13:53:00,33.2,24.1,29.97,SW,231,6.9,6.9,69,0.01,CLR,,0.04,WeatherDisplay:10.37,2013-04-13 18:53:00,
2013-04-13 13:58:00,33.5,24.4,29.97,West,259,10.4,10.4,69,0.01,CLR,,0.04,WeatherDisplay:10.37,2013-04-13 18:58:00,
2013-04-13 14:03:00,33.6,24.5,29.96,West,272,13.8,13.8,69,0.02,RA,,0.05,WeatherDisplay:10.37,2013-04-13 19:03:00,
2013-04-13 14:08:00,33.5,24.8,29.96,West,279,12.7,12.7,70,0.01,RA,,0.05,WeatherDisplay:10.37,2013-04-13 19:08:00,
2013-04-13 14:13:00,33.7,25.0,29.96,WSW,247,8.1,8.1,70,0.01,,,0.05,WeatherDisplay:10.37,2013-04-13 19:13:00,
2013-04-13 14:18:00,33.8,25.0,29.96,SW,228,10.4,10.4,70,0.01,CLR,,0.05,WeatherDisplay:10.37,2013-04-13 19:18:00,
2013-04-13 14:23:00,34.0,25.2,29.96,West,272,6.9,8.9,70,0.01,CLR,,0.05,WeatherDisplay:10.37,2013-04-13 19:23:00,
2013-04-13 14:28:00,34.1,25.3,29.96,SW,232,12.7,12.7,70,0.01,CLR,,0.05,WeatherDisplay:10.37,2013-04-13 19:28:00,
2013-04-13 14:33:00,34.1,25.3,29.96,NW,309,11.5,11.5,70,0.01,CLR,,0.05,WeatherDisplay:10.37,2013-04-13 19:33:00,
2013-04-13 14:38:00,34.2,25.1,29.96,WNW,291,11.5,11.5,69,0.01,CLR,,0.05,WeatherDisplay:10.37,2013-04-13 19:38:00,
2013-04-13 14:43:00,34.1,25.3,29.96,WSW,254,13.8,13.8,70,0.01,CLR,,0.05,WeatherDisplay:10.37,2013-04-13 19:43:00,
2013-04-13 14:48:00,34.2,25.1,29.96,WNW,289,10.4,10.4,69,0.01,CLR,,0.05,WeatherDisplay:10.37,2013-04-13 19:48:00,
2013-04-13 14:53:00,34.1,25.3,29.96,SSW,213,10.4,10.4,70,0.01,CLR,,0.05,WeatherDisplay:10.37,2013-04-13 19:53:00,
2013-04-13 14:58:00,33.9,24.8,29.96,WNW,284,11.5,11.5,69,0.01,CLR,,0.05,WeatherDisplay:10.37,2013-04-13 19:58:00,
2013-04-13 15:03:00,33.9,24.8,29.96,WSW,257,11.5,11.5,69,0.00,CLR,,0.05,WeatherDisplay:10.37,2013-04-13 20:03:00,
2013-04-13 15:08:00,34.0,24.9,29.96,West,260,5.8,5.8,69,0.00,CLR,,0.05,WeatherDisplay:10.37,2013-04-13 20:08:00,
2013-04-13 15:13:00,34.4,25.6,29.96,WNW,302,9.2,9.2,70,0.00,CLR,,0.05,WeatherDisplay:10.37,2013-04-13 20:13:00,
2013-04-13 15:18:00,34.4,25.6,29.96,West,259,6.9,6.9,70,0.00,CLR,,0.05,WeatherDisplay:10.37,2013-04-13 20:18:00,
2013-04-13 15:23:00,33.9,24.8,29.96,WSW,250,10.4,10.4,69,0.00,CLR,,0.05,WeatherDisplay:10.37,2013-04-13 20:23:00,
2013-04-13 15:28:00,33.9,24.8,29.96,WSW,241,5.8,5.8,69,0.00,CLR,,0.05,WeatherDisplay:10.37,2013-04-13 20:28:00,
2013-04-13 15:33:00,34.2,25.1,29.96,NW,306,6.9,6.9,69,0.00,CLR,,0.05,WeatherDisplay:10.37,2013-04-13 20:33:00,
2013-04-13 15:38:00,34.3,25.2,29.96,West,264,8.1,8.1,69,0.00,CLR,,0.05,WeatherDisplay:10.37,2013-04-13 20:38:00,
2013-04-13 15:43:00,34.3,25.2,29.96,West,268,9.2,9.2,69,0.00,CLR,,0.05,WeatherDisplay:10.37,2013-04-13 20:43:00,
2013-04-13 15:48:00,34.2,24.7,29.96,West,259,13.8,13.8,68,0.00,CLR,,0.05,WeatherDisplay:10.37,2013-04-13 20:48:00,
2013-04-13 15:53:00,34.2,24.7,29.96,West,270,12.7,12.7,68,0.00,CLR,,0.05,WeatherDisplay:10.37,2013-04-13 20:53:00,
2013-04-13 15:58:00,34.0,24.5,29.96,WNW,292,9.2,9.2,68,0.00,CLR,,0.05,WeatherDisplay:10.37,2013-04-13 20:58:00,
2013-04-13 16:03:00,34.2,25.4,29.95,NW,321,6.9,6.9,70,0.00,CLR,,0.05,WeatherDisplay:10.37,2013-04-13 21:03:00,
2013-04-13 16:08:00,34.4,24.9,29.95,SW,232,5.8,5.8,68,0.00,CLR,,0.05,WeatherDisplay:10.37,2013-04-13 21:08:00,
2013-04-13 16:13:00,34.2,24.7,29.95,WNW,288,10.0,10.0,68,0.00,CLR,,0.05,WeatherDisplay:10.37,2013-04-13 21:13:00,
2013-04-13 16:18:00,34.1,25.3,29.95,WNW,300,3.5,3.5,70,0.00,CLR,,0.05,WeatherDisplay:10.37,2013-04-13 21:18:00,
2013-04-13 16:23:00,34.4,25.6,29.95,West,261,6.9,6.9,70,0.00,CLR,,0.05,WeatherDisplay:10.37,2013-04-13 21:23:00,
2013-04-13 16:28:00,34.4,25.6,29.95,West,273,6.0,6.0,70,0.00,CLR,,0.05,WeatherDisplay:10.37,2013-04-13 21:28:00,
2013-04-13 16:33:00,34.3,25.2,29.95,WNW,296,5.8,5.8,69,0.00,CLR,,0.05,WeatherDisplay:10.37,2013-04-13 21:33:00,
2013-04-13 16:38:00,34.3,25.5,29.95,WNW,296,5.8,5.8,70,0.00,CLR,,0.05,WeatherDisplay:10.37,2013-04-13 21:38:00,
2013-04-13 16:43:00,34.4,25.3,29.95,WNW,294,5.0,5.0,69,0.00,CLR,,0.05,WeatherDisplay:10.37,2013-04-13 21:43:00,
2013-04-13 16:48:00,34.1,24.6,29.95,West,281,3.5,3.5,68,0.00,CLR,,0.05,WeatherDisplay:10.37,2013-04-13 21:48:00,
2013-04-13 16:53:00,34.2,25.1,29.95,WSW,252,3.5,3.5,69,0.00,CLR,,0.05,WeatherDisplay:10.37,2013-04-13 21:53:00,
2013-04-13 16:58:00,34.4,25.3,29.95,SW,225,5.8,5.8,69,0.00,CLR,,0.05,WeatherDisplay:10.37,2013-04-13 21:58:00,
2013-04-13 17:03:00,34.2,24.7,29.95,West,263,5.8,5.8,68,0.00,CLR,,0.05,WeatherDisplay:10.37,2013-04-13 22:03:00,
2013-04-13 17:08:00,34.2,24.7,29.95,SW,225,5.8,5.8,68,0.00,CLR,,0.05,WeatherDisplay:10.37,2013-04-13 22:08:00,
2013-04-13 17:13:00,34.4,24.6,29.95,West,269,3.5,3.5,67,0.00,CLR,,0.05,WeatherDisplay:10.37,2013-04-13 22:13:00,
2013-04-13 17:18:00,34.6,25.1,29.95,WSW,249,0.0,0.0,68,0.00,CLR,,0.05,WeatherDisplay:10.37,2013-04-13 22:18:00,
2013-04-13 17:23:00,35.4,24.8,29.95,West,270,5.8,5.8,65,0.00,CLR,,0.05,WeatherDisplay:10.37,2013-04-13 22:23:00,
2013-04-13 17:28:00,35.5,25.3,29.95,WNW,292,3.5,3.5,66,0.00,CLR,,0.05,WeatherDisplay:10.37,2013-04-13 22:28:00,
2013-04-13 17:33:00,34.9,23.6,29.95,SW,224,8.1,8.1,63,0.00,CLR,,0.05,WeatherDisplay:10.37,2013-04-13 22:33:00,
2013-04-13 17:38:00,34.7,24.1,29.95,SW,224,1.2,0.0,65,0.00,CLR,,0.05,WeatherDisplay:10.37,2013-04-13 22:38:00,
2013-04-13 17:43:00,34.6,24.0,29.95,SW,224,1.2,1.2,65,0.00,CLR,,0.05,WeatherDisplay:10.37,2013-04-13 22:43:00,
2013-04-13 17:48:00,34.6,24.0,29.95,SW,223,0.0,0.0,65,0.00,CLR,,0.05,WeatherDisplay:10.37,2013-04-13 22:48:00,
2013-04-13 17:53:00,34.9,24.3,29.95,SW,224,3.0,3.0,65,0.00,CLR,,0.05,WeatherDisplay:10.37,2013-04-13 22:53:00,
2013-04-13 17:58:00,35.0,24.4,29.95,SW,224,0.0,0.0,65,0.00,CLR,,0.05,WeatherDisplay:10.37,2013-04-13 22:58:00,
2013-04-13 18:03:00,35.2,24.6,29.95,SW,223,0.0,0.0,65,0.00,CLR,,0.05,WeatherDisplay:10.37,2013-04-13 23:03:00,
2013-04-13 18:08:00,35.1,24.1,29.95,SW,224,0.0,0.0,64,0.00,CLR,,0.05,WeatherDisplay:10.37,2013-04-13 23:08:00,
2013-04-13 18:13:00,35.0,24.0,29.95,SW,224,0.0,0.0,64,0.00,CLR,,0.05,WeatherDisplay:10.37,2013-04-13 23:13:00,
2013-04-13 18:18:00,34.7,23.8,29.95,SW,223,0.0,0.0,64,0.00,CLR,,0.05,WeatherDisplay:10.37,2013-04-13 23:18:00,
2013-04-13 18:23:00,34.4,23.8,29.96,SW,223,0.0,0.0,65,0.00,CLR,,0.05,WeatherDisplay:10.37,2013-04-13 23:23:00,
2013-04-13 18:28:00,34.4,23.8,29.96,SW,223,2.3,0.0,65,0.00,CLR,,0.05,WeatherDisplay:10.37,2013-04-13 23:28:00,
2013-04-13 18:33:00,34.4,24.2,29.96,SW,223,0.0,0.0,66,0.00,CLR,,0.05,WeatherDisplay:10.37,2013-04-13 23:33:00,
2013-04-13 18:38:00,34.4,23.8,29.96,SW,224,0.0,0.0,65,0.00,CLR,,0.05,WeatherDisplay:10.37,2013-04-13 23:38:00,
2013-04-13 18:44:00,34.4,24.2,29.96,SW,224,0.0,0.0,66,0.00,CLR,,0.05,WeatherDisplay:10.37,2013-04-13 23:44:00,
2013-04-13 18:49:00,34.4,24.2,29.96,SW,224,0.0,0.0,66,0.00,CLR,,0.05,WeatherDisplay:10.37,2013-04-13 23:49:00,
2013-04-13 18:54:00,34.4,24.2,29.96,SW,224,0.0,0.0,66,0.00,CLR,,0.05,WeatherDisplay:10.37,2013-04-13 23:54:00,
2013-04-13 18:59:00,34.4,23.8,29.96,SSW,202,2.3,2.3,65,0.00,CLR,,0.05,WeatherDisplay:10.37,2013-04-13 23:59:00,
2013-04-13 19:04:00,34.4,24.2,29.96,SE,129,3.5,0.0,66,0.00,CLR,,0.05,WeatherDisplay:10.37,2013-04-14 00:04:00,
2013-04-13 19:09:00,34.3,24.1,29.96,SE,129,0.0,0.0,66,0.00,CLR,,0.05,WeatherDisplay:10.37,2013-04-14 00:09:00,
2013-04-13 19:14:00,34.2,24.4,29.96,SE,129,0.0,0.1,67,0.00,CLR,,0.05,WeatherDisplay:10.37,2013-04-14 00:14:00,
2013-04-13 19:19:00,34.0,23.8,29.96,SE,129,0.0,0.0,66,0.00,CLR,,0.05,WeatherDisplay:10.37,2013-04-14 00:19:00,
2013-04-13 19:24:00,34.0,24.2,29.96,SE,129,0.0,0.0,67,0.00,CLR,,0.05,WeatherDisplay:10.37,2013-04-14 00:24:00,
2013-04-13 19:29:00,33.9,23.7,29.96,SE,130,0.0,0.0,66,0.00,CLR,,0.05,WeatherDisplay:10.37,2013-04-14 00:29:00,
2013-04-13 19:34:00,33.8,24.0,29.96,SSE,157,3.5,3.5,67,0.00,CLR,,0.05,WeatherDisplay:10.37,2013-04-14 00:34:00,
2013-04-13 19:39:00,33.7,24.3,29.96,South,171,2.0,2.0,68,0.00,CLR,,0.05,WeatherDisplay:10.37,2013-04-14 00:39:00,
2013-04-13 19:44:00,33.4,24.0,29.96,South,171,2.3,2.3,68,0.00,CLR,,0.05,WeatherDisplay:10.37,2013-04-14 00:44:00,
2013-04-13 19:49:00,33.3,23.9,29.97,South,171,0.0,0.0,68,0.00,CLR,,0.05,WeatherDisplay:10.37,2013-04-14 00:49:00,
2013-04-13 19:54:00,33.2,23.8,29.97,South,171,0.0,0.0,68,0.00,CLR,,0.05,WeatherDisplay:10.37,2013-04-14 00:54:00,
2013-04-13 19:59:00,33.2,24.1,29.97,South,171,0.0,0.0,69,0.00,CLR,,0.05,WeatherDisplay:10.37,2013-04-14 00:59:00,
2013-04-13 20:04:00,33.1,24.0,29.97,South,171,0.0,0.0,69,0.00,CLR,,0.05,WeatherDisplay:10.37,2013-04-14 01:04:00,
2013-04-13 20:09:00,33.1,23.7,29.97,South,171,0.0,0.0,68,0.00,CLR,,0.05,WeatherDisplay:10.37,2013-04-14 01:09:00,
2013-04-13 20:14:00,33.0,23.9,29.97,South,171,0.0,0.0,69,0.00,CLR,,0.05,WeatherDisplay:10.37,2013-04-14 01:14:00,
2013-04-13 20:19:00,33.0,23.9,29.97,South,171,0.0,0.0,69,0.00,CLR,,0.05,WeatherDisplay:10.37,2013-04-14 01:19:00,
2013-04-13 20:24:00,32.9,23.8,29.97,South,171,0.0,0.0,69,0.00,CLR,,0.05,WeatherDisplay:10.37,2013-04-14 01:24:00,
2013-04-13 20:29:00,32.9,23.8,29.97,South,171,0.0,0.0,69,0.00,CLR,,0.05,WeatherDisplay:10.37,2013-04-14 01:29:00,
2013-04-13 20:34:00,32.9,23.8,29.97,South,171,0.0,0.0,69,0.00,CLR,,0.05,WeatherDisplay:10.37,2013-04-14 01:34:00,
2013-04-13 20:39:00,32.9,24.2,29.97,South,171,0.0,0.0,70,0.00,CLR,,0.05,WeatherDisplay:10.37,2013-04-14 01:39:00,
2013-04-13 20:44:00,32.8,24.1,29.98,South,171,0.0,0.0,70,0.00,CLR,,0.05,WeatherDisplay:10.37,2013-04-14 01:44:00,
2013-04-13 20:49:00,32.8,24.1,29.97,South,171,0.0,0.0,70,0.00,CLR,,0.05,WeatherDisplay:10.37,2013-04-14 01:49:00,
2013-04-13 20:54:00,32.7,24.0,29.98,South,171,0.0,0.0,70,0.00,CLR,,0.05,WeatherDisplay:10.37,2013-04-14 01:54:00,
2013-04-13 20:59:00,32.6,23.9,29.98,South,171,0.0,0.0,70,0.00,CLR,,0.05,WeatherDisplay:10.37,2013-04-14 01:59:00,
2013-04-13 21:04:00,32.5,24.1,29.98,South,171,0.0,0.0,71,0.00,CLR,,0.05,WeatherDisplay:10.37,2013-04-14 02:04:00,
2013-04-13 21:09:00,32.5,24.1,29.98,South,171,0.0,0.0,71,0.01,RA,,0.06,WeatherDisplay:10.37,2013-04-14 02:09:00,
2013-04-13 21:14:00,32.5,24.1,29.98,South,171,0.0,0.0,71,0.01,RA,,0.06,WeatherDisplay:10.37,2013-04-14 02:14:00,
2013-04-13 21:19:00,32.3,24.3,29.99,South,171,0.0,0.0,72,0.01,CLR,,0.06,WeatherDisplay:10.37,2013-04-14 02:19:00,
2013-04-13 21:24:00,32.1,24.4,29.99,South,171,0.0,0.0,73,0.01,CLR,,0.06,WeatherDisplay:10.37,2013-04-14 02:24:00,
2013-04-13 21:29:00,31.9,23.9,29.99,South,171,0.0,0.0,72,0.01,CLR,,0.06,WeatherDisplay:10.37,2013-04-14 02:29:00,
2013-04-13 21:35:00,31.7,23.7,30.00,South,171,0.0,0.0,72,0.01,CLR,,0.06,WeatherDisplay:10.37,2013-04-14 02:35:00,
2013-04-13 21:40:00,31.6,23.9,30.00,South,171,0.0,0.0,73,0.01,CLR,,0.06,WeatherDisplay:10.37,2013-04-14 02:40:00,
2013-04-13 21:45:00,31.5,23.8,30.00,South,171,0.0,0.0,73,0.01,CLR,,0.06,WeatherDisplay:10.37,2013-04-14 02:45:00,
2013-04-13 21:50:00,31.5,23.8,30.00,South,171,0.0,0.0,73,0.01,CLR,,0.06,WeatherDisplay:10.37,2013-04-14 02:50:00,
2013-04-13 21:55:00,31.5,24.5,30.00,South,171,0.0,0.0,75,0.01,CLR,,0.06,WeatherDisplay:10.37,2013-04-14 02:55:00,
2013-04-13 22:00:00,31.4,24.4,30.01,South,171,0.0,0.0,75,0.01,CLR,,0.06,WeatherDisplay:10.37,2013-04-14 03:00:00,
2013-04-13 22:05:00,31.4,24.7,30.01,South,171,0.0,0.0,76,0.01,CLR,,0.06,WeatherDisplay:10.37,2013-04-14 03:05:00,
2013-04-13 22:10:00,31.3,24.6,30.01,South,171,0.0,0.0,76,0.00,CLR,,0.06,WeatherDisplay:10.37,2013-04-14 03:10:00,
2013-04-13 22:15:00,31.2,24.5,30.01,South,171,0.0,0.0,76,0.00,CLR,,0.06,WeatherDisplay:10.37,2013-04-14 03:15:00,
2013-04-13 22:20:00,31.1,24.4,30.01,South,171,0.0,0.0,76,0.00,CLR,,0.06,WeatherDisplay:10.37,2013-04-14 03:20:00,
2013-04-13 22:25:00,31.0,24.3,30.01,South,171,0.0,0.0,76,0.00,CLR,,0.06,WeatherDisplay:10.37,2013-04-14 03:25:00,
2013-04-13 22:30:00,30.9,24.2,30.01,South,171,0.0,0.0,76,0.00,CLR,,0.06,WeatherDisplay:10.37,2013-04-14 03:30:00,
2013-04-13 22:35:00,30.8,24.4,30.01,South,171,0.0,0.0,77,0.00,CLR,,0.06,WeatherDisplay:10.37,2013-04-14 03:35:00,
2013-04-13 22:40:00,30.6,24.2,30.01,South,171,0.0,0.0,77,0.00,CLR,,0.06,WeatherDisplay:10.37,2013-04-14 03:40:00,
2013-04-13 22:45:00,30.4,24.1,30.01,South,171,0.0,0.0,77,0.00,CLR,,0.06,WeatherDisplay:10.37,2013-04-14 03:45:00,
2013-04-13 22:50:00,30.1,24.1,30.02,South,171,0.0,0.0,78,0.00,CLR,,0.06,WeatherDisplay:10.37,2013-04-14 03:50:00,
2013-04-13 22:55:00,29.8,23.8,30.01,South,171,0.0,0.0,78,0.00,CLR,,0.06,WeatherDisplay:10.37,2013-04-14 03:55:00,
2013-04-13 23:00:00,29.7,24.0,30.01,South,171,0.0,0.0,79,0.00,CLR,,0.06,WeatherDisplay:10.37,2013-04-14 04:00:00,
2013-04-13 23:05:00,29.8,24.1,30.01,South,171,0.0,0.0,79,0.00,CLR,,0.06,WeatherDisplay:10.37,2013-04-14 04:05:00,
2013-04-13 23:10:00,29.8,24.1,30.01,South,171,0.0,0.0,79,0.00,CLR,,0.06,WeatherDisplay:10.37,2013-04-14 04:10:00,
2013-04-13 23:15:00,29.9,24.2,30.01,South,171,0.0,0.0,79,0.00,CLR,,0.06,WeatherDisplay:10.37,2013-04-14 04:15:00,
2013-04-13 23:20:00,30.1,24.1,30.01,South,171,0.0,0.0,78,0.00,CLR,,0.06,WeatherDisplay:10.37,2013-04-14 04:20:00,
2013-04-13 23:25:00,30.2,24.2,30.01,South,171,0.0,0.0,78,0.00,CLR,,0.06,WeatherDisplay:10.37,2013-04-14 04:25:00,
2013-04-13 23:30:00,30.2,24.2,30.01,South,171,0.0,0.0,78,0.00,CLR,,0.06,WeatherDisplay:10.37,2013-04-14 04:30:00,
2013-04-13 23:35:00,30.2,24.2,30.00,South,171,0.0,0.0,78,0.00,CLR,,0.06,WeatherDisplay:10.37,2013-04-14 04:35:00,
2013-04-13 23:40:00,30.1,24.1,30.00,South,171,0.0,0.0,78,0.00,CLR,,0.06,WeatherDisplay:10.37,2013-04-14 04:40:00,
2013-04-13 23:45:00,30.1,24.1,30.01,South,171,0.0,0.0,78,0.00,CLR,,0.06,WeatherDisplay:10.37,2013-04-14 04:45:00,
2013-04-13 23:50:00,30.1,24.1,30.00,South,171,0.0,0.0,78,0.00,CLR,,0.06,WeatherDisplay:10.37,2013-04-14 04:50:00,
2013-04-13 23:55:00,30.1,24.1,30.00,South,171,0.0,0.0,78,0.00,CLR,,0.06,WeatherDisplay:10.37,2013-04-14 04:55:00,